Regional Weather Roundup
Issued by NWS

Home | Current Version | Previous Version | Graphics & Text | Print | Product List | Glossary On
Versions: 1 2 3 4 5 6 7 8 9 10 11 12 13 14 15 16 17 18 19 20 21 22 23 24 25 26 27
000
ASUS45 KCYS 041810
RWRWY

WYOMING REGIONAL WEATHER ROUNDUP
NATIONAL WEATHER SERVICE CHEYENNE WY
1100 AM MST SUN DEC 04 2016

NOTE:  "FAIR" INDICATES FEW OR NO CLOUDS BELOW 12,000 FEET
WITH NO SIGNIFICANT WEATHER AND/OR OBSTRUCTIONS TO VISIBILITY.

WYZ001-041900-
YELLOWSTONE NATIONAL PARK

CITY           SKY/WX    TMP DP  RH WIND       PRES   REMARKS
LK YELLOWSTONE   N/A     21  17  84 W9G26     29.81F WCI  11
6HR MIN TEMP:  19; 6HR MAX TEMP:  21; 6HR PCP:  0.06;

W YELLOWSTONE  NOT AVBL

$$
WYZ002>013-054>058-071-098>099-041900-
NORTHERN WYOMING

CITY           SKY/WX    TMP DP  RH WIND       PRES   REMARKS
JACKSON        CLOUDY    27  25  93 SW16G24   29.90F WCI  14
CODY           CLOUDY    37  22  54 S9        29.76F WCI  30
GREYBULL       FAIR      35  17  47 S5        29.79F WCI  31
6HR MIN TEMP:  24; 6HR MAX TEMP:  35;

WORLAND        FAIR      33  24  69 NW5       29.77F WCI  29
6HR MIN TEMP:  20; 6HR MAX TEMP:  33;

SHERIDAN       CLOUDY    39  19  44 SE3       29.76F
6HR MIN TEMP:  24; 6HR MAX TEMP:  40;

BUFFALO        CLOUDY    38  13  35 SE5       29.76F WCI  34
6HR MIN TEMP:  26; 6HR MAX TEMP:  38;

GILLETTE       FAIR      38  15  39 SW15      29.77F WCI  29
6HR MIN TEMP:  25; 6HR MAX TEMP:  38;

HULETT         FAIR      34  18  51 SW9       29.80F WCI  26
NEWCASTLE      FAIR      32  12  43 CALM      29.86F

$$
WYZ014>020-022>026-101>103-041900-
CENTRAL WYOMING

CITY           SKY/WX    TMP DP  RH WIND       PRES   REMARKS
BIG PINEY      CLOUDY    24  17  74 S3        29.97F
6HR MIN TEMP:   8; 6HR MAX TEMP:  24;

PINEDALE       LGT SNOW  23  21  93 MISG      29.99F
DUBOIS         CLOUDY    28  19  69 N13G29    29.80F WCI  18
LANDER         FAIR      32  13  45 NW3       29.81F
6HR MIN TEMP:  14; 6HR MAX TEMP:  33;

RIVERTON       FAIR      33  13  43 S6        29.82F WCI  28
6HR MIN TEMP:  19; 6HR MAX TEMP:  33;

CASPER         FAIR      36  16  44 SW30G43   29.84F WCI  23
6HR MIN TEMP:  19; 6HR MAX TEMP:  36; 6HR PCP: TRACE;

DOUGLAS        FAIR      40  17  39 W18       29.84F WCI  31
6HR MIN TEMP:  14; 6HR MAX TEMP:  40;


$$
WYZ021-027>030-104>119-041900-
SOUTHERN WYOMING

CITY           SKY/WX    TMP DP  RH WIND       PRES   REMARKS
EVANSTON       FAIR      29  13  51 S13       30.05F WCI  19
6HR MIN TEMP:  18; 6HR MAX TEMP:  29;

FORT BRIDGER   FAIR      35  15  42 W22       30.04F WCI  24
ROCK SPRINGS   PTSUNNY   31  14  49 SW16G23   30.00F WCI  20
6HR MIN TEMP:  20; 6HR MAX TEMP:  31;

DIXON          CLOUDY    28  15  58 SW13      30.11F WCI  18
RAWLINS        FAIR      31  13  47 SW29G40   29.96F WCI  16
6HR MIN TEMP:  20; 6HR MAX TEMP:  31;

SARATOGA       MOCLDY    32  14  47 S8        30.01F WCI  25
LARAMIE        FAIR      35  11  36 SW25G39   29.92F WCI  23
6HR MIN TEMP:  17; 6HR MAX TEMP:  35;

CHEYENNE       FAIR      36   7  29 S16G22    29.91F WCI  26
6HR MIN TEMP:  24; 6HR MAX TEMP:  36;

TORRINGTON     FAIR      45  12  26 W15G24    29.89F
6HR MIN TEMP:  24; 6HR MAX TEMP:  45;

PINE BLUFFS    FAIR      37   9  30 SW21      29.94F WCI  27

$$




USA.gov is the U.S. government's official web portal to all federal, state and local government web resources and services.